Regional Weather Roundup
Issued by NWS

Home | Current Version | Previous Version | Text Only | Print | Product List | Glossary On
Versions: 1 2 3 4 5 6 7 8 9 10 11 12 13 14 15 16 17 18 19 20 21 22 23 24 25 26 27 28 29 30 31 32 33 34 35 36 37 38 39 40 41 42 43 44 45 46 47 48 49 50
000
ASUS43 KMPX 041410
RWRMN
WEATHER ROUNDUP FOR MINNESOTA
NATIONAL WEATHER SERVICE TWIN CITIES/CHANHASSEN MN
900 AM CDT FRI SEP 04 2015


NOTE: "FAIR" INDICATES FEW OR NO CLOUDS BELOW 12,000 FEET WITH NO
SIGNIFICANT WEATHER AND/OR OBSTRUCTIONS TO VISIBILITY. N/A MEANS
CURRENT SKY AND/OR WEATHER CONDITIONS ARE NOT AVAILABLE.

MNZ060>063-068>070-041500-
   Twin Cities Metro

CITY           SKY/WX    TMP DP  RH WIND       PRES   REMARKS
TWIN CITIES    PTSUNNY   72  68  87 SE12      29.94R
ST PAUL        MOSUNNY   73  68  84 SE10      29.95R
CRYSTAL        CLOUDY    74  68  81 SE13      29.92R
BLAINE         MOSUNNY   75  72  88 SE10      29.94R
LAKEVILLE      CLOUDY    72  72 100 SE7       29.95S FOG
EDEN PRAIRIE   CLOUDY    74  70  87 SE12      29.92S
SOUTH ST PAUL  MOSUNNY   74  67  80 SE8       29.95R
LAKE ELMO      FAIR      72  68  88 SE12      29.97S
$$
MNZ001>005-007-008-013>017-022>024-027-028-041500-
   Northwest Minnesota

CITY           SKY/WX    TMP DP  RH WIND       PRES   REMARKS
BEMIDJI        CLOUDY    67  65  94 SE10      29.89R
HALLOCK        PTSUNNY   75  72  88 S10       29.80R
ROSEAU         CLOUDY    70  64  83 SE8       29.84S
WARROAD        CLOUDY    70  66  88 SE9       29.85F
THIEF RVR FALL MOSUNNY   73  70  88 SE15      29.81S
CROOKSTON      MOSUNNY   75  72  88 SE16      29.78F
FOSSTON        PTSUNNY   70  66  88 SE10      29.83F
DETROIT LAKES  CLOUDY    72  68  88 SE17G26   29.84F
MOORHEAD       SUNNY     79  72  78 SE13      29.78R
PARK RAPIDS    CLOUDY    71  67  87 SE14      29.88S FOG
MAHNOMEN       CLOUDY    72  69  90 SE13      29.81F
$$
MNZ006-009>011-018-025>026-041500-
   North Central Minnesota

CITY           SKY/WX    TMP DP  RH WIND       PRES   REMARKS
BAUDETTE       CLOUDY    66  60  81 SE12      29.88F
FLAG ISLAND    CLOUDY    68  63  83 SE9       29.88R
INTL FALLS     PTSUNNY   69  63  81 SE12      29.94S
WASKISH        CLOUDY    68  66  94 SE14      29.88F
BIG FORK       CLOUDY    68  63  83 SE6       29.95S
LONGVILLE      CLOUDY    68  64  88 SE7       29.91F
GRAND RAPIDS     N/A     66  61  82 SE9       29.95S
CRANE LAKE     MOSUNNY   64  61  88 SE3       29.99S
ORR            MOSUNNY   66  61  82 SE5       29.95S
COOK           MOSUNNY   70  63  78 SE8       29.99R
WALKER         CLOUDY    67  65  93 SE8       29.90S
$$
MNZ012-019>021-037-041500-
   Northeast Minnesota

CITY           SKY/WX    TMP DP  RH WIND       PRES   REMARKS
DULUTH         MOSUNNY   65  61  87 SE13      30.01S
ELY            SUNNY     68  61  77 S8        30.01S
HIBBING        PTSUNNY   68  62  81 SE12      29.99S
EVELETH        PTSUNNY   68  61  77 S8        30.00S
DULUTH HARBOR  PTSUNNY   61  57  88 E9        30.01F
TWO HARBORS    SUNNY     70  64  83 NE5       30.00F
SILVER BAY     SUNNY     68  61  77 NE3       30.02S
GRAND MARAIS     N/A     63  56  78 NE8       30.05R
G MARAIS ARPRT SUNNY     64  57  77 E5        30.08S
$$
MNZ029>031-032-039>041-046>048-054>057-064-041500-
   West Central Minnesota

CITY           SKY/WX    TMP DP  RH WIND       PRES   REMARKS
FERGUS FALLS   SUNNY     77  73  88 SE15G21   29.80S
WHEATON        MOSUNNY   73  70  88 SE13      29.81R
MORRIS         MOSUNNY   77  72  83 SE13      29.82S
ALEXANDRIA     CLOUDY    74  71  91 SE14      29.88R
ELBOW LAKE     FAIR      76  71  84 SE16G24   29.82S
WADENA         CLOUDY    70  68  94 SE12      29.86F FOG
GLENWOOD       MOSUNNY   73  72  94 SE14      29.88R
APPLETON       MOSUNNY   77  70  78 SE9G17    29.82R
BENSON         SUNNY     77  70  78 S9G16     29.84S
ORTONVILLE     PTSUNNY   75  70  83 SE8       29.81S
MADISON        PTSUNNY   75  70  83 S7        29.82R
WILLMAR        FAIR      75  72  88 SE10G16   29.89R
$$
MNZ033>034-036-042>043-049>051-058-059-041500-
   Central Minnesota

CITY           SKY/WX    TMP DP  RH WIND       PRES   REMARKS
ST CLOUD       MOSUNNY   73  69  87 SE10      29.90F
SAUK CENTRE    CLOUDY    74  71  90 SE8       29.89R
PAYNESVILLE    MOSUNNY   74  71  90 E14       29.89S
AITKIN         PTSUNNY   72  64  78 SE10G16   29.92F
PINE RIVER     CLOUDY    68  66  94 SE8       29.94S
BRAINERD       PTSUNNY   71  66  84 SE7       29.91F
STAPLES        CLOUDY    70  66  88 SE10      29.88F FOG
LONG PRAIRIE   CLOUDY    70  68  94 E10       29.89F
LITTLE FALLS   CLOUDY    70  64  83 SE8       29.90F
LITCHFIELD     SUNNY     77  73  88 SE7       29.90S
BUFFALO        SUNNY     74  69  83 SE8       29.91F
MAPLE LAKE     SUNNY     75  72  89 SE7       29.91F
$$
MNZ037-044-045-052-053-041500-
   East Central Minnesota

CITY           SKY/WX    TMP DP  RH WIND       PRES   REMARKS
PRINCETON      SUNNY     73  68  83 SE10      29.93S
MORA           SUNNY     70  64  83 SE8       29.97R
CAMBRIDGE      SUNNY     73  63  68 SE8       29.92S
RUSH CITY      SUNNY     72  66  81 SE12      29.95R
MOOSE LAKE     CLOUDY    63  59  88 NE3       29.96S
HINCKLEY       FAIR      72  68  88 SE8       29.96S
CLOQUET        CLOUDY    64  61  88 E7        29.99F
MCGREGOR       CLOUDY    68  63  83 E12       29.95F
$$
MNZ071>073-080-081-089-090-097-098-041500-
   Southwest Minnesota

CITY           SKY/WX    TMP DP  RH WIND       PRES   REMARKS
MONTEVIDEO     MOSUNNY   79  70  73 S9        29.85S
GRANITE FALLS  MOSUNNY   75  71  86 SE12      29.86S
CANBY          PTSUNNY   77  68  74 S6        29.84R
MARSHALL       MOSUNNY   77  66  69 S16       29.86R
REDWOOD FALLS  SUNNY     76  70  82 S14       29.87S
OLIVIA         SUNNY     72  66  83 S12       29.87S
PIPESTONE      PTSUNNY   73  68  83 S9        29.88R
WINDOM         SUNNY     77  68  73 S9G18     29.90F
WORTHINGTON    MOSUNNY   73  66  78 S13       29.89F
JACKSON        SUNNY     73  70  88 S10       29.91F
TRACY          MOSUNNY   75  70  83 S15G22    29.87S
SLAYTON        PTSUNNY   73  70  92 CALM      29.89F
$$
MNZ065>067-074>077-082>085-091>093-041500-
   South Central Minnesota

CITY           SKY/WX    TMP DP  RH WIND       PRES   REMARKS
MANKATO        SUNNY     75  70  83 S12       29.93R
NEW ULM        SUNNY     75  70  83 S10       29.90R
ST JAMES       SUNNY     77  72  83 S10       29.91S
FAIRMONT       MOSUNNY   75  66  73 S9        29.92S
GLENCOE        SUNNY     77  73  86 SE8       29.91R
FARIBAULT      SUNNY     77  72  83 SE8       29.94F
OWATONNA       SUNNY     75  70  83 SE10      29.95S
WASECA         SUNNY     73  70  88 SE5       29.96R
ALBERT LEA     SUNNY     73  70  88 S7        29.97R
$$
MNZ078>079-086>088-094>096-041500-
   Southeast Minnesota

CITY           SKY/WX    TMP DP  RH WIND       PRES   REMARKS
ROCHESTER      CLOUDY    70  69  97 SE10      30.00R FOG
RED WING       SUNNY     75  66  73 SE9G16    29.96R
STANTON        CLOUDY    74  70  87 SE7       29.95R
DODGE CENTER   CLOUDY    72  70  94 SE9       29.98S FOG
WINONA         SUNNY     73  66  78 SE7       29.99S
AUSTIN         SUNNY     75  72  88 SE7       29.98R
PRESTON        PTSUNNY   71  67  87 SE7       30.01S
$$
ABBREVIATIONS USED IN REMARKS
   TC - TEMPERATURES IN CELSIUS
  WCI - WIND CHILL INDEX
   HX - HEAT INDEX
  VSB - VISIBILITY
$$


USA.gov is the U.S. government's official web portal to all federal, state and local government web resources and services.